Starlink 30591

operational
NORAD ID: 58088 Int'l Des: 2023-160 Owner: SPXS Country: US Constellation: starlink
LEOCIRCULAR

关于 Starlink 30591

正在加载描述...

实时位置

正在加载3D地球...

即将过境

高度历史

Altitude vs Time

uPlot chart will show altitude changes over time

两行轨道根数

1 58088U 23160P 25352.81117024 -.00000794 00000-0 -43727-4 0 9991
2 58088 43.0028 159.5562 0001190 262.2114 97.8593 15.02531307120753
Epoch: Dec 18, 2025 • Age: 20 hours

当前状态

高度 566.7 km
速度 7.58 km/s
星下点 -30.56°S, 51.18°E
发射日期 Oct 18, 2023
运行时间 2.1 years
类型 internet

技术详情

分类 Payload
质量 730.00 kg
干质量 700.00 kg
总质量 730.00 kg
长度 0.30 m
直径 4.10 m
跨度 29.00 m
形状 Box + pan
制造商 SPXS
平台类型 Starlink V2M
阶段状态 In Orbit
所有者/国家 SPXS/US

大型星座

Loading constellations...